STARLINK-3082 (49162 NORAD) Tracking and Keplerian Element Data

This shows tracking and keplerian element data for the satellite.

Feedback or suggestion? Click here.




ElementValue
Catalog49162
NameSTARLINK-3082
Epoch Orbit614
Epoch Day288.16667824
Epoch Year2021
RAAN39.5657
Inclination70.0005
Eccentricity0.0003448
Argument of Perigee281.9301
Mean Anonmoly176.4458
Mean Motion15.69777682
Decay Rate-0.00028223
L11 49162U 21082AJ 21288.16667824 -.00028223 00000-0 -23515-3 0 9994
L22 49162 70.0005 39.5657 0003448 281.9301 176.4458 15.69777682 6148

Live tracking and technical data element details for STARLINK-3082 (NORAD 49162). STARLINK-3082 can be tracked NOW for your location showing map with azimuth and elevation plus other details from your city location.

Track the satellite on the map from your city or location and see movement details for azimuth, elevation, latitude, longitude, range, height, and movement on the map or in text.







IsCatalogInMostPopularTable: catalog: 49162, numindb: 4
Update: records affected: 1



GetName: 49162 STARLINK-3082

Hit Count: updated at: Sun, 17 Oct 2021 08:40:50 GMT